Skip Page Navigation
NASA JPL Caltech
NASA Logo - Jet Propulsion Laboratory + View the NASA Portal
+ Center for Near-Earth Object Studies
JPL Home Earth Solar System Stars & Galaxies Technology
JPL Solar System Dynamics
BODIES ORBITS EPHEMERIDES TOOLS PHYSICAL DATA DISCOVERY FAQ SITE MAP
JPL Small-Body Database Browser
Search: [ help ]  
3514 Hooke (1971 UJ)
Classification: Outer Main-belt Asteroid          SPK-ID: 2003514
Ephemeris | Orbit Diagram | Orbital Elements | Mission Design | Physical Parameters | Discovery Circumstances | Close-Approach Data ]

[ hide orbit diagram ]

For accurate long-term ephemerides, please instead use our Horizons system.This orbit viewer was implemented using two-body methods, and hence should not be used for determining accurate long-term trajectories (over several years or decades) or planetary encounter circumstances.


Orbital Elements at Epoch 2459396.5 (2021-Jul-01.0) TDB
Reference: JPL 39 (heliocentric ecliptic J2000)
 Element Value Uncertainty (1-sigma)   Units 
e .1928926938664947 1.9584e-08  
a 3.95756153374399 2.754e-08 au
q 3.194176828357696 8.283e-08 au
i 3.50464443328642 6.1779e-07 deg
node 24.27236128491176 7.097e-06 deg
peri 341.7229936566794 8.9634e-06 deg
M 148.1920675730145 7.0586e-06 deg
tp 2458212.743442823655
(2018-Apr-04.24344282)
5.3555e-05 TDB
period 2875.675922218429
7.87
3.0017e-05
8.218e-08
d
yr
n .1251879591919661 1.3067e-09 deg/d
Q 4.720946239130286 3.2852e-08 au
  Orbit Determination Parameters
   # obs. used (total)      2565  
   data-arc span      18127 days (49.63 yr)  
   first obs. used      1971-10-16  
   last obs. used      2021-06-02  
   planetary ephem.      DE441  
   SB-pert. ephem.      SB441-N16  
   condition code      0  
   norm. resid. RMS      .44193  
   source      ORB  
   producer      Otto Matic  
   solution date      2021-Jul-07 22:32:01  

Additional Information
 Earth MOID = 2.19223 au 
 Jupiter MOID = .741203 au 
 T_jup = 3.023 
[ show covariance matrix ]

Ephemeris | Orbit Diagram | Orbital Elements | Mission Design | Physical Parameters | Discovery Circumstances | Close-Approach Data ]

Physical Parameter Table
Parameter Symbol Value Units Sigma Reference Notes
absolute magnitude H 11.80   n/a MPCxxxxx  
diameter diameter 22.039 km 0.286 urn:nasa:pds:neowise_diameters_albedos::2.0[hildas] (http://adsabs.harvard.edu/abs/2012ApJ...744..197G)  
rotation period rot_per 4.307 h n/a LCDB (Rev. 2020-October); Warner et al., 2009 Published Reference List:
[Dahlgren, M.; Lahulla, J.F.; Lagerkvist, C.-I.; Lagerros, J.; et al. (1998) Icarus 133, 247-285.]
[Waszczak, A.; Chang, C.-K.; Ofeck, E.O.; Laher, F.; et al. (2015) Astron. J. 150, A75.]
[Warner, B.D.; Stephens, R.D. (2019) Minor Planet Bull. 46, 161-163.]
geometric albedo albedo 0.084   0.015 urn:nasa:pds:neowise_diameters_albedos::2.0[hildas] (http://adsabs.harvard.edu/abs/2012ApJ...744..197G)  

3514 Hooke           Discovered 1971 Oct. 26 by L. Kohoutek at Bergedorf.
English experimental scientist Robert Hooke (1635-1703) is known for his law of elasticity, the spring balance, an escapement for clocks and a Universal Joint commonly used at the end of a propeller shaft. The name was suggested for this specific minor planet by D. Bowater in the BBC Word of Mouth competition.
NOTE: some special characters may not display properly (any characters within {} are an attempt to place the proper accent above a character)
Reference: 20000523/MPCPages.arcLast Updated: 2013-03-29

[ show close-approach data ]
Alternate Designations
 1971 UJ = 1979 WH8 = 1981 AG3 
Ephemeris | Orbit Diagram | Orbital Elements | Mission Design | Physical Parameters | Discovery Circumstances | Close-Approach Data ]
ABOUT SSD CREDITS/AWARDS PRIVACY/COPYRIGHT GLOSSARY LINKS
FirstGov 2021-Jul-24 05:09 UT
(server date/time)  
NASA Home Page
Site Manager:   Ryan S. Park
Webmaster  Alan B. Chamberlin